RH
36 32 42 41 41 43 46 53 50 53 53 46 54 59 58 58 56 48 45 63 64 49 57 57 52 51 40 38 33 31 47 51 44 44 42 39 39 40 43 46 53 62 66 67 73 80 84 90 92 91 91 89 87 85 82 81 77 74 75 80 86 89 91 91 87 81 75 73 72 69 64 59 56 55 55 55 54 54 53 53 53 52 50 47 44 42
38 35 44 42 41 47 56 66 65 62 57 52 55 56 61 63 56 46 40 58 63 48 55 56 46 43 34 29 25 23 31 35 35 35 36 36 35 37 39 41 44 46 51 58 70 78 81 87 90 92 93 91 90 87 84 82 79 76 73 74 78 83 88 90 88 86 81 78 77 75 71 64 61 60 59 58 56 56 55 54 54 54 53 50 47 44
41 39 38 45 56 61 70 75 62 55 56 57 58 52 58 61 53 46 41 52 57 46 51 52 40 30 23 20 17 16 19 17 19 22 23 26 27 29 32 36 40 41 45 51 61 73 80 84 87 91 93 93 91 87 84 83 80 78 75 72 73 76 83 86 87 87 84 82 79 77 76 69 63 62 59 58 58 57 56 55 54 55 54 52 50 46
34 40 46 60 68 56 57 64 53 49 53 54 55 52 56 52 44 46 43 43 46 44 50 49 37 26 18 17 14 13 19 20 21 25 24 24 24 22 25 30 35 39 42 44 49 61 74 82 86 90 92 93 92 88 85 83 81 80 77 74 71 72 76 81 84 86 84 83 81 79 75 70 65 63 61 61 61 59 57 56 55 55 55 53 51 48
25 41 62 68 62 47 45 56 50 45 53 59 56 52 53 46 41 45 40 32 30 32 41 36 27 24 17 14 10 9 18 22 25 29 26 26 28 27 28 30 33 35 37 40 43 49 65 78 83 86 89 91 92 89 86 83 82 80 78 76 73 71 72 75 79 81 82 81 80 78 74 71 70 67 67 68 66 63 59 57 55 55 55 54 52 49
33 44 60 55 51 49 44 51 53 48 54 61 56 47 45 42 41 40 29 23 21 22 26 22 20 25 19 11 6 5 13 16 20 25 22 23 28 31 33 30 30 35 36 39 41 44 56 68 76 81 85 90 91 89 86 83 82 80 79 77 74 72 70 71 73 74 77 77 76 74 72 72 73 71 69 68 66 63 60 57 56 56 56 55 53 50
37 47 57 50 49 51 47 51 58 53 46 49 54 51 47 42 37 32 20 19 25 22 19 17 16 21 17 6 6 15 19 17 16 20 21 23 26 31 35 32 32 34 35 39 41 44 50 57 68 77 81 86 88 87 85 83 82 80 79 77 74 72 70 69 70 70 72 72 71 70 69 69 69 70 68 64 62 60 59 57 56 57 56 55 54 51
39 46 54 50 49 50 48 50 55 52 45 51 56 48 41 33 27 27 19 19 30 27 23 23 16 20 25 13 13 25 23 16 13 14 17 22 27 32 35 36 37 37 38 42 43 45 48 51 59 67 73 79 82 84 84 83 82 80 79 78 75 72 70 68 68 69 70 69 69 68 67 68 67 67 66 64 63 61 60 59 58 58 57 55 55 52
39 37 46 49 50 49 50 53 54 47 41 52 55 45 39 32 30 34 28 32 41 30 26 32 23 22 33 24 20 23 15 13 16 17 22 27 31 37 40 41 43 43 44 47 48 48 49 48 49 52 59 68 75 80 82 82 80 79 77 76 76 73 70 68 66 66 68 68 69 68 67 68 67 67 66 65 65 65 64 63 62 61 59 57 55 52
30 40 50 48 45 42 49 61 60 44 33 44 53 48 51 61 62 55 46 49 53 36 23 27 23 18 28 25 17 16 18 24 27 27 34 38 40 44 47 49 50 51 53 54 56 57 56 54 49 46 47 52 61 71 77 80 80 79 78 75 73 72 70 69 67 65 66 67 68 68 67 67 67 67 67 67 66 66 66 66 64 62 60 58 56 53
35 56 59 48 45 42 53 64 60 55 50 45 40 27 31 56 62 65 74 61 47 43 33 28 22 15 26 29 17 19 33 43 45 46 49 49 49 52 53 56 57 58 59 60 63 64 65 66 62 56 51 48 50 58 69 76 78 78 78 76 72 71 69 68 67 65 64 65 66 67 66 66 66 66 66 66 66 65 65 65 65 63 61 59 56 54
34 49 57 56 58 52 50 52 47 57 56 36 28 21 21 36 39 55 79 59 38 44 43 43 35 19 27 37 31 36 47 54 58 60 60 57 57 58 58 60 61 62 64 64 66 68 70 73 73 71 66 58 51 51 59 69 76 77 76 77 76 72 70 67 66 65 63 63 64 65 65 64 64 64 64 65 64 64 63 63 63 63 62 60 57 55
21 37 54 52 54 49 38 36 34 42 42 26 32 42 36 33 27 36 53 46 43 46 40 43 39 24 27 37 45 52 54 57 60 60 62 62 61 62 62 64 65 66 67 68 69 70 72 74 75 76 75 72 66 58 57 61 67 73 74 75 76 75 73 70 67 66 64 63 63 62 63 63 63 63 63 64 63 63 62 61 61 61 61 60 58 56
17 35 51 40 40 41 30 25 22 27 35 28 33 45 42 30 19 24 37 38 38 40 38 35 31 32 33 35 50 57 54 59 61 59 62 61 63 65 66 67 67 69 70 71 72 70 72 73 72 73 74 76 76 73 68 61 59 64 68 71 73 73 74 73 71 69 67 65 63 62 62 62 62 63 63 63 63 63 61 61 60 59 59 58 57 56
16 24 37 35 34 34 29 28 23 25 37 35 28 30 37 37 26 26 37 34 30 41 46 30 29 45 40 36 54 56 54 62 61 61 63 61 65 68 68 71 71 72 72 72 74 72 70 70 68 70 71 71 74 75 75 72 67 62 61 63 66 68 70 72 73 71 70 68 65 65 64 63 63 62 63 63 62 62 61 60 59 58 57 56 55 53
14 15 26 40 44 37 34 37 31 24 28 34 28 20 31 42 30 28 43 39 27 36 43 33 36 48 42 47 63 58 57 65 63 65 67 64 68 71 73 76 73 74 74 73 76 74 69 67 66 67 68 68 70 70 71 73 73 70 65 62 60 60 62 65 68 69 69 69 67 67 65 65 65 63 63 63 62 61 60 59 58 56 55 53 52 51
16 17 28 46 48 41 40 38 32 27 23 25 28 25 34 36 17 22 44 41 30 31 36 34 32 33 35 49 66 66 66 70 66 68 70 69 71 75 78 79 75 75 74 73 74 74 70 66 65 66 66 67 67 68 69 69 70 71 70 69 65 61 58 57 59 62 65 67 67 67 66 64 64 63 62 62 61 60 58 58 56 54 53 51 49 48
25 20 30 42 36 38 54 49 41 44 32 22 29 30 29 28 22 33 42 35 35 37 37 38 35 31 33 45 67 79 79 78 74 70 71 71 73 78 81 78 76 75 72 71 71 71 70 66 64 64 65 66 66 66 67 66 66 67 67 69 69 68 65 60 57 56 57 60 63 64 64 64 63 62 61 61 60 59 58 57 56 54 52 51 48 47
38 26 30 44 42 40 50 45 41 49 38 26 34 32 26 29 33 41 43 40 39 36 40 49 46 46 55 65 82 90 88 87 81 72 73 75 75 79 82 79 75 73 71 70 69 70 71 67 64 64 64 66 67 66 66 65 65 65 64 64 65 66 67 65 62 58 55 54 56 58 59 60 61 60 60 59 58 57 57 56 55 54 52 51 49 47
38 30 29 41 46 39 35 35 38 47 42 33 35 37 36 36 37 42 48 53 48 37 43 47 37 50 76 85 88 90 90 90 84 76 75 76 76 78 82 81 76 73 71 69 68 69 71 68 63 61 64 67 67 67 66 65 65 65 65 64 64 63 63 63 65 65 62 57 54 54 55 56 57 58 58 58 57 56 55 54 54 53 53 51 49 48
30 28 32 30 30 29 27 32 38 37 32 34 43 47 41 37 43 51 49 48 44 37 44 46 40 57 78 78 83 89 88 87 84 80 76 74 74 75 79 81 76 73 70 67 67 68 69 68 62 59 63 66 68 67 65 65 67 67 67 66 65 65 63 63 63 64 66 65 61 57 55 54 54 54 55 56 56 56 55 54 53 52 52 51 50 48
31 28 35 30 27 27 23 27 35 32 26 34 46 47 45 48 50 51 53 53 49 45 51 50 49 69 78 71 78 83 78 82 83 77 75 73 70 70 75 79 76 72 70 66 66 68 69 67 61 59 62 64 67 66 65 66 67 66 67 67 66 67 66 65 64 63 63 65 66 64 60 58 56 55 55 54 55 56 55 55 54 53 53 52 50 49
42 33 34 34 32 26 23 31 38 37 31 34 41 42 52 62 53 48 58 62 56 55 59 54 52 75 88 76 73 74 71 77 79 74 74 71 66 65 70 77 77 72 69 66 65 68 69 65 60 60 61 64 66 66 66 68 67 67 66 66 68 68 68 69 68 66 63 61 63 65 65 64 62 59 58 57 55 55 55 55 55 54 54 53 52 50
43 39 38 43 42 30 32 40 35 34 34 32 41 51 55 56 51 51 55 55 58 59 60 61 62 79 90 74 63 68 68 68 70 70 72 70 65 61 61 70 75 70 66 62 61 67 68 62 59 59 60 64 64 64 68 70 69 68 67 68 71 71 70 71 71 70 68 64 61 61 63 65 65 64 62 60 58 57 56 56 56 56 55 54 53 52
42 47 45 56 65 54 53 54 41 41 41 35 50 66 63 61 67 67 58 56 65 66 65 70 69 76 86 70 56 58 60 59 59 57 61 65 64 60 55 61 69 69 64 59 59 65 65 59 56 56 59 61 59 61 68 71 69 68 68 71 74 73 72 71 71 72 73 70 65 61 60 61 63 64 63 62 61 59 58 58 57 57 57 56 55 53
44 52 43 54 78 78 73 68 55 52 50 48 67 84 78 75 77 72 64 67 75 79 83 83 75 77 81 68 58 61 61 60 58 51 52 58 64 64 58 57 65 70 67 60 60 65 63 57 54 54 57 57 53 57 66 69 67 65 68 74 74 71 70 70 71 73 75 75 72 66 63 60 59 60 61 61 61 60 59 59 58 58 58 56 56 55
46 55 43 43 63 69 65 56 47 51 55 53 70 89 92 91 85 75 75 81 87 94 95 90 88 89 79 65 66 70 67 66 63 55 51 58 68 70 60 56 64 72 68 62 62 65 63 58 54 54 57 54 50 56 65 66 62 63 70 74 72 69 68 71 74 77 79 79 77 74 70 66 62 59 59 59 59 59 59 59 59 58 58 57 56 56
54 65 58 50 52 52 51 48 44 51 58 60 74 90 98 102 94 85 87 87 91 100 94 82 88 91 76 67 72 74 69 67 64 57 55 62 70 70 61 57 62 69 68 63 61 62 62 60 57 57 57 52 52 59 63 60 58 65 72 71 68 66 68 73 78 81 83 83 82 80 75 71 69 65 62 61 60 59 58 58 59 59 58 58 58 58
56 72 75 65 62 58 54 55 52 55 65 76 87 90 92 100 100 97 96 89 90 101 89 74 82 86 74 69 74 73 69 67 62 57 56 60 64 63 58 55 60 69 70 63 58 57 58 60 61 60 56 53 57 61 59 57 61 68 72 69 65 65 69 76 82 85 86 86 85 84 81 77 74 70 67 65 63 62 60 59 60 60 60 61 60 60
57 75 83 75 73 68 62 62 58 62 78 86 84 81 83 92 94 92 90 83 88 97 87 79 88 86 74 74 76 70 64 61 58 55 55 57 58 56 52 53 63 71 67 59 53 51 55 62 62 59 57 58 60 60 56 59 67 71 70 67 65 68 73 80 86 88 89 89 89 89 88 85 80 74 70 68 66 65 63 62 62 62 63 63 62 61
63 73 84 86 81 69 67 70 64 69 83 83 76 74 79 87 89 88 86 81 85 91 85 87 96 88 76 76 74 64 58 58 59 59 58 55 52 50 51 59 68 67 58 53 51 51 57 64 62 58 61 63 61 58 58 64 71 71 69 67 69 73 79 85 90 92 92 93 92 92 93 90 85 78 72 68 67 66 65 64 64 64 64 64 63 62
73 77 91 98 90 72 65 71 74 77 84 87 85 78 79 86 85 81 80 73 72 81 85 90 96 92 81 74 69 61 57 59 62 63 60 54 50 50 56 64 65 58 54 54 53 56 63 65 63 62 64 65 61 58 62 69 73 71 70 71 74 79 85 90 94 96 95 95 94 94 94 91 87 81 73 68 66 65 65 65 65 65 65 64 63 61
85 87 93 100 95 77 66 74 80 75 73 84 87 78 77 84 80 74 74 67 61 71 87 95 94 87 78 70 68 64 60 62 64 61 56 54 52 54 59 61 56 50 53 56 55 61 68 65 62 62 64 64 61 62 66 71 74 73 73 76 79 83 89 95 97 98 98 97 95 95 94 91 88 82 75 69 65 63 65 66 66 66 65 63 62 59
97 92 89 98 100 86 78 79 69 54 62 81 81 69 69 73 75 76 75 69 64 68 80 89 84 74 68 65 67 67 64 63 62 55 52 53 55 58 57 53 50 51 55 57 56 61 63 57 53 58 63 65 64 65 68 70 71 73 76 80 82 86 94 98 99 100 99 97 95 95 93 91 87 83 77 71 66 64 65 66 67 67 65 64 63 61
88 85 87 96 102 96 89 83 66 56 71 83 73 61 60 57 57 64 66 66 71 75 79 82 75 64 61 60 60 63 62 60 58 53 51 52 53 55 53 49 50 55 57 57 54 53 51 48 50 58 66 69 67 66 68 68 68 74 80 83 85 90 96 99 99 99 98 96 95 95 94 92 88 83 78 72 68 66 65 66 67 68 67 66 64 62
74 82 94 99 98 96 94 91 84 77 79 79 69 61 60 57 55 65 71 64 64 72 76 73 66 58 56 54 53 57 57 58 59 55 51 49 47 47 50 51 52 54 54 53 51 49 49 49 53 62 69 69 66 67 68 65 68 78 85 85 88 93 96 98 98 98 96 96 95 95 95 93 90 85 80 75 71 69 67 67 68 69 69 69 69 68
81 86 96 96 90 93 101 100 90 80 78 85 85 72 63 62 60 69 80 71 67 72 67 61 62 59 55 55 55 55 57 65 71 62 48 44 44 44 47 48 48 49 50 48 47 48 49 50 55 63 66 64 67 70 66 62 70 84 90 88 91 95 96 96 97 96 96 96 96 97 97 95 93 89 83 78 75 72 70 70 70 71 72 74 75 76
81 78 81 87 88 90 97 99 94 86 83 89 89 68 55 56 53 57 72 79 78 71 56 55 65 62 58 60 57 57 68 83 86 68 47 44 45 44 46 46 45 47 47 47 48 49 50 53 58 62 61 63 71 71 63 64 78 90 91 90 93 96 97 97 96 96 98 98 99 100 100 97 95 91 86 82 78 74 73 73 74 75 76 77 78 80
79 83 84 88 93 92 90 96 100 96 90 92 88 68 54 54 50 52 70 80 73 60 52 60 67 62 61 61 57 67 87 98 91 69 51 49 49 46 48 49 46 48 47 47 50 51 52 56 59 61 62 68 74 69 63 73 88 92 91 91 94 98 98 97 97 99 100 100 101 101 100 99 97 93 88 85 81 78 76 76 77 79 80 81 82 83
88 96 94 87 91 95 95 100 99 88 82 84 81 69 57 48 46 62 82 79 65 58 60 65 66 62 61 59 62 79 95 95 87 69 54 51 50 48 50 51 49 50 50 49 51 52 54 59 61 63 69 74 74 68 70 83 92 91 91 93 96 98 97 97 99 100 100 100 100 100 98 98 99 97 92 88 85 82 81 80 82 83 84 86 86 88
95 100 97 91 95 97 97 102 96 84 83 82 70 59 52 46 55 80 90 76 65 67 65 62 63 62 59 62 73 85 84 76 70 62 53 53 54 53 52 51 50 51 51 51 53 54 58 62 63 67 73 75 72 70 77 87 90 89 92 95 97 98 97 98 100 100 100 100 100 100 99 98 99 99 97 93 89 88 86 85 86 86 87 89 90 92
101 102 98 98 101 95 94 100 94 80 78 77 63 50 52 66 82 89 80 68 67 70 63 59 61 59 59 68 78 79 73 67 63 60 57 57 58 57 54 53 53 54 54 54 55 58 64 66 66 71 77 76 72 73 79 84 87 90 94 96 97 97 98 100 100 99 100 100 99 100 100 99 100 100 99 98 95 93 92 91 91 91 91 92 94 95
95 96 97 97 95 91 94 99 95 83 73 67 63 61 66 80 88 80 70 67 65 62 60 61 59 57 61 71 75 73 73 71 66 63 60 59 59 59 56 56 57 58 58 58 60 65 68 69 70 76 79 77 74 74 76 81 87 93 96 96 96 98 99 100 100 99 100 100 100 100 100 100 100 100 100 101 99 97 97 97 96 97 96 96 98 99
81 88 99 95 87 92 98 94 86 83 72 60 63 71 72 70 68 64 65 67 60 56 59 61 58 57 60 68 74 77 77 73 68 65 65 64 63 61 60 59 60 61 62 64 68 71 71 72 76 81 81 79 75 73 75 81 89 96 97 95 96 99 101 100 100 100 100 100 100 100 100 100 100 100 100 100 101 101 101 100 100 100 100 100 100 101
74 78 89 89 82 83 87 81 72 70 63 52 53 60 61 58 55 54 56 59 59 56 57 59 61 59 59 67 77 80 76 72 70 68 68 68 66 65 66 67 66 68 70 71 74 75 73 75 81 85 84 79 74 73 77 83 91 97 98 95 96 101 102 100 100 100 100 100 101 100 100 101 100 100 100 100 100 101 101 101 102 102 102 102 101 102
77 75 81 88 84 75 69 64 60 57 54 50 49 51 53 53 51 49 52 56 57 55 55 58 60 59 63 72 78 77 74 73 72 71 71 71 70 70 72 73 73 73 73 75 77 77 76 80 85 87 85 80 76 76 80 85 92 97 97 95 97 101 102 100 100 101 99 101 101 99 100 102 101 101 101 100 100 101 101 101 102 101 101 102 102 102
80 78 81 84 84 84 76 61 54 55 54 54 53 52 52 51 48 49 53 54 54 54 56 57 57 60 67 73 74 74 74 73 75 76 74 74 76 76 76 75 73 72 74 78 81 79 80 86 89 88 85 81 78 79 84 89 92 94 97 97 97 100 102 101 101 100 100 101 101 99 100 102 102 101 101 101 101 101 102 102 101 101 102 101 101 102
80 76 81 84 83 82 73 55 50 56 57 57 57 55 53 53 52 53 54 54 54 55 56 56 57 62 68 70 70 73 75 74 77 79 79 79 80 80 78 75 73 76 81 83 83 83 87 92 91 87 85 82 79 81 89 92 92 95 99 98 95 98 102 102 101 101 101 100 100 100 101 102 102 101 100 101 102 102 102 103 102 102 101 99 98 99
81 76 82 88 83 74 64 57 61 71 70 61 56 54 53 54 57 58 57 56 57 58 58 58 59 61 66 69 69 73 78 78 78 79 82 83 82 80 80 78 79 83 85 83 84 88 92 92 89 86 85 81 79 85 93 94 94 98 100 95 94 98 102 101 100 101 101 100 99 99 100 101 102 102 101 102 103 101 101 101 100 100 98 95 95 95
86 86 86 90 89 82 76 72 77 88 87 71 58 56 56 55 57 63 63 61 61 61 61 63 63 63 66 69 71 77 83 82 79 80 82 82 82 83 83 82 83 84 82 81 85 90 91 90 88 87 83 80 83 91 96 96 97 100 98 94 96 100 102 101 101 100 101 101 100 99 100 100 101 102 102 103 103 102 101 100 99 99 98 95 94 93
90 91 90 94 96 90 81 73 74 82 82 69 59 58 58 56 60 67 68 65 63 61 61 64 68 70 71 72 75 80 84 82 78 79 81 83 84 83 80 80 83 84 82 82 85 88 91 91 88 86 83 85 91 97 98 99 100 99 96 96 99 101 102 102 101 100 100 101 101 100 100 100 100 100 101 101 102 103 102 101 100 99 99 99 98 96
Wind_Speed
2 1 3 6 8 7 8 7 6 4 4 3 2 4 5 6 8 5 3 4 1 2 7 5 8 15 19 20 18 9 6 9 13 13 13 13 12 11 11 12 12 14 16 14 17 23 28 32 34 35 34 35 36 36 36 35 36 38 39 39 41 42 42 42 41 41 41 39 37 37 38 41 43 43 42 41 40 39 37 36 34 33 32 31 30 29
2 3 8 9 9 7 5 5 4 3 3 2 3 5 5 5 8 6 2 4 1 2 5 3 7 16 18 18 18 11 7 11 14 13 15 15 13 11 11 14 14 13 12 9 12 19 24 28 31 33 33 34 36 36 37 37 38 40 40 41 43 43 43 43 44 44 44 44 44 42 42 44 44 44 44 43 43 42 40 38 37 35 35 34 32 31
1 6 10 7 4 4 4 4 5 4 4 2 2 2 4 4 5 7 3 4 1 3 4 4 6 16 20 17 17 14 10 12 12 12 14 14 12 12 12 13 13 12 11 11 11 14 20 25 28 31 32 34 36 37 39 40 41 40 40 42 43 44 44 45 46 46 46 47 47 46 45 46 44 44 45 45 44 43 41 40 39 38 37 36 35 34
2 7 7 3 6 6 3 3 5 3 2 3 3 2 5 3 1 4 4 3 1 3 4 4 6 14 17 14 13 12 9 8 8 10 12 11 12 14 12 10 10 12 13 12 11 10 14 20 24 28 31 33 34 36 38 39 39 39 40 42 43 43 44 45 46 47 47 46 45 44 43 43 42 41 43 43 41 42 43 42 41 41 39 38 37 36
8 6 2 4 4 5 3 2 5 4 3 4 5 6 7 5 5 7 4 5 3 2 2 3 5 9 8 8 10 6 3 6 5 7 10 9 11 12 11 11 11 12 12 11 11 9 9 14 21 26 28 30 32 35 37 39 40 40 42 44 44 43 43 44 46 48 47 42 40 39 35 33 33 32 34 35 36 38 42 43 44 43 42 41 39 38
9 4 4 5 2 3 4 4 5 7 3 4 5 10 11 8 7 6 4 5 4 4 1 1 3 7 4 8 14 8 6 10 4 4 11 10 8 8 9 11 9 8 9 9 10 7 7 12 18 22 26 28 31 35 39 40 41 41 42 43 43 43 44 45 46 47 46 43 41 39 34 31 30 28 31 36 39 42 44 46 46 45 44 43 41 40
4 1 3 4 4 4 4 5 5 7 3 4 4 7 8 6 4 4 2 1 1 3 3 3 0 7 6 9 16 9 9 14 8 6 9 8 7 7 7 9 9 10 10 10 10 8 7 10 13 18 24 29 32 37 38 37 37 39 40 41 42 44 44 45 46 46 46 44 43 43 42 40 38 35 36 41 44 46 47 47 47 46 46 45 44 42
2 2 2 3 4 4 4 5 6 9 6 3 4 4 5 5 5 5 3 3 3 3 3 2 4 5 6 8 12 7 8 14 13 10 10 12 13 11 10 10 10 11 11 10 10 9 8 9 11 16 23 28 32 33 32 32 35 38 39 40 41 43 42 43 45 46 46 46 45 45 45 43 43 42 41 42 44 44 45 46 46 46 46 46 45 44
3 3 4 4 3 3 5 5 6 10 5 4 4 4 5 5 4 4 4 2 2 3 5 3 4 3 6 6 8 4 5 11 13 14 17 19 18 17 16 15 15 14 13 13 13 12 11 11 14 18 20 23 27 28 28 31 35 36 37 37 37 39 41 41 42 45 47 48 47 46 45 43 42 42 40 40 40 41 41 43 44 45 46 46 46 46
1 3 6 6 4 5 4 2 5 8 3 3 5 5 4 5 3 3 4 2 2 2 8 7 7 4 5 5 6 3 6 10 11 11 15 17 18 18 19 19 19 17 15 14 15 14 16 19 19 19 19 21 23 24 26 29 31 32 33 34 35 38 40 40 41 43 46 47 46 45 44 43 41 39 37 36 36 37 38 40 42 43 45 46 47 47
2 1 3 4 4 5 3 2 1 3 2 4 5 4 4 4 4 3 2 3 3 3 8 6 9 6 4 5 3 5 4 7 9 10 14 16 17 17 16 17 17 16 15 15 16 17 22 28 29 26 20 18 18 20 22 25 27 29 31 32 35 36 37 38 39 41 43 45 45 44 44 44 42 39 37 36 35 36 37 39 40 42 44 45 46 47
3 1 2 1 1 4 5 4 3 2 2 3 3 3 2 3 3 4 4 3 1 5 6 3 4 5 4 4 5 7 5 8 10 11 14 16 15 14 14 14 14 14 14 16 17 18 22 26 31 33 29 25 20 15 16 20 23 25 27 30 31 33 35 37 38 40 41 43 44 44 43 44 43 41 40 39 38 38 40 40 40 40 41 42 44 45
4 4 2 2 1 4 5 3 3 4 4 3 2 3 2 4 3 3 3 0 3 6 3 1 2 2 3 1 5 8 9 12 10 9 11 13 13 14 14 14 13 13 15 16 16 17 18 19 24 30 31 31 29 24 18 15 17 20 23 25 28 32 34 35 36 38 40 42 44 45 44 44 43 42 42 41 41 41 42 42 41 40 41 41 43 44
5 3 2 1 1 1 4 3 0 2 1 3 3 3 3 1 1 4 4 2 5 5 3 1 1 2 2 2 3 5 8 8 8 9 9 10 12 12 12 13 13 14 16 15 15 16 16 18 23 28 30 32 33 33 30 24 18 16 19 21 25 29 31 32 33 35 37 40 43 44 45 44 43 42 43 42 42 42 42 43 43 43 43 44 45 47
3 5 1 1 1 0 3 3 3 3 3 3 4 4 4 3 3 4 4 4 6 5 4 2 1 3 3 4 3 2 4 6 7 8 8 9 10 10 11 13 15 16 15 14 14 14 15 20 25 27 30 32 34 36 37 35 31 23 18 18 20 23 25 27 29 32 34 37 40 41 42 42 41 42 42 42 42 42 42 42 43 44 45 46 47 48
2 6 4 2 1 3 3 2 3 4 1 1 2 3 2 3 4 2 4 5 3 3 4 2 3 3 5 8 5 3 5 9 10 10 11 11 10 11 12 13 13 13 13 13 14 14 16 22 26 27 29 31 33 35 37 37 37 33 28 23 20 21 21 22 25 29 33 35 36 36 37 38 38 39 39 39 40 41 42 43 44 45 45 46 46 46
2 6 3 1 1 3 4 1 1 1 1 1 2 2 4 4 4 1 4 1 2 2 4 1 3 4 2 4 3 11 13 15 15 14 13 12 12 12 11 11 11 11 11 12 12 12 15 21 26 28 29 31 33 34 36 37 37 35 34 31 27 24 22 21 23 26 29 31 33 34 35 36 37 37 38 39 39 40 40 41 42 42 42 43 44 44
1 6 4 2 0 2 3 1 3 3 2 3 2 4 3 1 2 2 1 3 1 4 4 1 4 5 1 3 9 17 17 18 17 16 15 14 13 12 10 10 10 10 10 11 12 13 15 21 26 29 30 32 33 35 36 38 38 38 38 37 35 32 28 24 23 24 26 28 31 33 34 35 36 37 38 38 37 36 37 38 39 39 40 42 42 43
2 3 6 1 2 3 1 1 3 4 1 3 3 3 1 1 3 1 0 2 2 5 5 3 6 4 2 2 9 14 13 14 15 14 14 15 14 12 10 10 10 10 10 10 12 12 13 20 25 28 30 32 34 36 38 39 40 41 41 40 38 36 34 31 27 24 24 26 29 31 33 34 35 36 37 37 36 36 36 37 38 39 40 40 41 41
1 1 5 2 3 2 3 2 1 4 2 1 1 3 1 3 4 2 1 2 2 6 6 5 6 4 2 0 6 8 9 10 12 12 12 13 13 12 10 11 12 11 11 11 11 11 12 18 24 27 29 30 31 33 36 37 39 39 39 39 39 38 37 35 32 28 25 24 26 29 31 32 34 35 36 37 36 36 37 38 38 38 39 39 39 40
0 2 4 4 2 3 3 1 4 3 2 1 1 2 2 1 1 1 1 1 1 5 5 5 6 4 1 2 2 5 6 6 8 9 9 10 11 11 10 10 10 11 11 11 11 10 12 17 23 26 27 28 28 31 34 35 35 36 37 37 37 37 36 36 35 32 29 27 25 26 28 30 32 33 34 35 35 37 37 37 37 38 38 38 39 39
1 2 3 5 6 6 5 4 5 5 3 2 2 2 2 2 1 3 4 1 0 2 2 3 7 4 1 2 1 2 5 6 6 6 7 9 10 11 10 8 9 9 10 11 11 9 11 16 21 24 26 27 28 30 33 34 34 35 36 36 36 35 35 36 36 35 33 30 27 27 28 29 30 30 31 32 34 36 37 37 38 38 38 38 39 39
2 2 2 6 7 7 7 5 3 3 3 4 2 0 1 2 2 1 5 3 3 3 2 1 6 4 1 1 1 1 4 5 6 5 5 8 8 9 10 9 8 8 9 10 11 10 12 17 20 22 24 26 27 29 31 32 33 34 35 35 35 35 36 37 36 36 35 32 30 28 27 27 27 28 28 30 32 34 36 37 38 37 38 39 39 39
1 1 1 5 6 6 5 4 2 1 4 4 3 3 2 1 1 4 5 2 3 6 3 3 6 3 2 2 1 1 4 4 4 5 6 7 7 8 11 10 8 8 9 10 10 10 14 18 20 22 24 25 27 29 30 31 33 35 36 36 35 35 37 38 38 37 36 34 32 30 28 26 26 26 27 29 31 33 35 35 36 36 37 37 38 39
1 0 1 4 6 7 7 6 4 3 3 2 1 2 2 2 2 2 2 1 1 4 2 4 7 2 3 3 1 1 3 4 4 6 8 7 7 8 10 11 10 9 9 11 12 11 13 15 17 19 21 23 26 28 29 31 34 36 37 36 35 36 38 38 38 38 38 36 33 32 30 28 27 26 27 29 31 32 33 33 34 34 35 36 37 38
2 2 0 1 4 5 6 5 5 5 5 1 2 2 3 4 3 2 1 0 3 2 4 2 6 3 2 3 4 5 6 8 8 10 11 9 8 8 9 11 10 8 9 12 12 11 12 13 16 19 21 23 26 28 27 29 33 36 36 34 34 36 39 39 38 37 36 35 33 32 31 30 29 28 28 29 29 30 31 31 32 33 34 35 35 36
1 1 3 6 6 6 6 7 6 5 7 8 3 2 1 3 2 2 1 1 3 2 3 4 4 5 6 4 6 8 10 11 11 13 14 11 9 9 10 12 11 8 7 10 10 11 12 13 16 20 22 25 29 29 27 29 33 34 33 33 34 36 38 38 37 36 34 33 32 31 31 31 31 30 30 30 29 29 29 29 30 31 32 33 34 35
2 2 4 5 6 6 5 8 9 6 7 8 5 1 1 1 3 4 2 3 2 1 4 3 3 6 10 5 4 7 9 10 11 13 14 12 10 10 12 14 14 9 7 9 10 11 13 13 14 18 22 26 30 30 31 34 35 34 32 34 37 39 39 39 38 37 36 34 31 30 29 30 31 31 31 31 30 28 28 28 29 30 31 31 32 34
3 4 3 2 5 6 6 10 11 8 4 2 2 2 1 1 3 5 3 5 3 3 6 6 5 9 10 5 4 5 7 8 10 11 12 12 11 13 15 17 15 11 10 12 13 14 14 12 12 15 22 26 28 30 33 36 36 34 34 38 41 42 42 41 40 38 37 35 33 30 30 30 30 30 31 31 30 29 28 28 29 29 30 31 32 32
3 3 3 2 6 7 7 10 9 4 2 1 2 3 3 2 2 4 2 4 5 7 10 11 11 11 6 3 4 5 6 6 8 9 11 11 13 16 17 17 14 11 12 14 16 16 15 12 12 16 21 24 26 30 33 34 33 33 35 39 42 43 43 41 40 38 36 35 35 33 32 31 31 30 30 30 30 30 30 29 29 29 29 30 31 31
2 2 2 3 5 7 6 5 4 2 4 4 3 3 4 4 3 2 1 3 4 7 9 9 10 9 2 3 6 8 8 8 9 10 10 10 12 15 16 14 12 12 14 15 16 17 15 12 14 19 21 22 26 30 31 31 32 35 38 40 41 42 42 40 38 36 35 35 36 34 33 33 32 30 29 29 29 30 30 30 30 30 30 30 30 30
2 2 3 5 4 6 2 3 5 3 2 3 2 4 6 4 3 2 2 4 6 8 9 8 7 5 3 6 9 10 10 11 11 10 10 10 12 13 13 11 11 11 13 14 15 16 14 12 15 18 20 23 27 30 30 30 32 36 39 40 41 41 41 39 37 36 36 36 35 33 32 32 32 30 29 28 28 29 30 30 30 29 29 30 30 30
2 1 2 3 3 5 2 4 7 3 3 4 2 3 4 4 4 3 4 7 9 7 7 7 5 5 7 10 13 14 14 12 10 9 10 13 14 12 9 9 11 12 13 14 16 15 13 14 18 20 21 24 27 29 30 30 31 35 37 38 40 41 40 38 37 37 37 37 35 33 31 31 31 30 29 28 28 28 28 28 29 29 30 30 30 30
2 2 1 1 1 5 6 7 7 4 3 4 2 3 4 3 5 7 8 11 11 7 5 5 5 10 12 13 15 17 16 12 9 8 9 11 12 10 8 10 12 14 14 14 14 13 14 19 24 25 24 26 28 30 31 31 33 36 37 37 39 40 39 38 37 36 35 36 35 32 31 31 30 29 28 28 27 27 27 27 28 29 29 29 29 29
3 3 2 1 2 4 5 6 5 5 4 5 4 5 5 2 4 9 10 8 7 7 5 5 9 13 14 14 15 16 16 15 11 9 10 11 8 7 10 12 13 14 13 13 13 14 17 22 25 26 25 26 29 30 31 32 34 36 36 36 37 37 36 36 36 35 34 34 33 32 31 31 30 29 28 27 26 26 26 27 27 27 28 28 28 29
3 2 1 1 1 2 3 3 2 4 3 4 1 6 6 2 5 10 10 6 4 3 6 8 11 13 14 16 16 15 17 16 11 9 10 8 3 5 9 12 12 12 12 13 15 17 20 24 25 26 25 27 29 30 31 34 34 33 33 34 35 35 34 33 34 34 33 33 32 32 31 31 30 29 27 25 24 25 25 26 27 27 27 27 27 28
5 2 1 1 1 1 0 2 3 2 1 2 1 4 4 4 6 7 8 7 2 3 5 11 15 17 18 18 18 17 16 15 11 7 4 2 2 6 10 12 14 15 16 19 21 23 25 26 27 26 27 28 29 28 31 34 33 30 30 31 31 31 32 33 33 32 32 34 33 33 33 32 31 29 26 24 23 24 25 26 26 27 26 26 26 26
4 2 2 2 1 2 1 3 3 4 3 0 1 3 3 5 6 5 5 5 0 1 10 16 18 20 21 20 21 18 13 10 9 3 1 1 7 9 12 15 18 19 20 22 24 25 26 28 27 27 29 29 28 28 31 33 30 27 28 28 27 27 29 30 30 30 33 36 35 34 34 33 31 29 26 24 23 24 25 25 25 25 26 26 26 26
5 3 3 2 2 1 1 2 2 2 4 3 3 5 6 6 5 3 4 3 2 9 16 16 16 19 19 21 23 16 7 7 8 5 4 9 12 11 12 15 19 22 23 24 25 25 27 28 27 27 28 27 26 29 31 29 26 25 26 27 26 26 26 27 28 30 34 37 36 35 34 33 31 28 25 24 24 24 24 24 23 23 24 25 25 24
5 4 3 1 3 1 1 1 2 3 3 3 5 5 6 5 3 5 6 6 7 14 17 15 16 18 18 21 21 11 5 6 10 12 14 15 15 15 15 16 19 23 25 26 26 26 27 27 26 25 25 23 25 29 29 26 24 24 25 25 25 24 25 27 29 31 33 34 35 35 34 32 31 27 24 23 23 22 22 22 21 22 22 23 22 22
2 2 1 1 1 1 1 2 3 4 2 2 4 5 5 5 4 4 7 9 11 15 15 14 17 18 18 19 15 8 7 9 12 15 17 16 16 17 20 22 26 28 29 29 29 26 26 26 25 24 22 23 25 28 27 24 24 24 24 23 22 23 26 29 31 32 32 32 32 32 32 31 29 25 23 21 20 19 19 20 20 21 21 22 21 20
1 1 2 1 1 1 2 2 3 4 2 2 7 6 3 6 6 5 8 11 12 14 14 14 17 18 18 17 13 10 13 15 16 17 18 17 16 17 21 25 27 28 30 31 28 24 24 25 25 23 21 21 23 25 25 24 24 24 23 22 23 25 27 28 30 31 31 31 30 29 29 28 25 22 19 18 16 16 16 17 18 19 20 20 20 20
2 1 2 2 1 0 1 1 2 3 3 4 10 7 4 6 7 7 9 11 12 13 14 13 14 15 16 16 15 15 16 17 17 18 18 18 17 18 21 24 24 25 28 29 26 23 24 24 24 22 21 20 22 24 24 24 24 23 22 22 25 27 27 28 29 29 29 28 27 27 26 25 22 19 16 14 13 13 14 15 16 17 18 18 19 18
2 2 1 2 1 2 0 2 1 1 2 7 9 6 6 8 8 8 10 10 11 12 12 11 12 14 15 15 16 16 16 16 17 17 17 17 17 17 20 23 25 26 27 26 25 25 26 24 21 21 20 21 22 23 24 23 23 22 21 23 26 26 26 27 28 28 27 27 26 25 24 22 19 16 13 11 11 11 12 13 14 15 16 17 17 16
1 2 3 2 1 1 3 3 2 3 5 8 8 8 10 11 9 9 10 11 11 11 10 10 12 14 15 15 15 15 14 15 16 16 15 16 17 17 18 21 24 25 25 26 27 27 26 23 20 18 18 20 23 24 23 22 21 21 23 25 26 25 25 26 26 26 26 26 25 24 22 19 16 13 11 9 9 10 11 12 13 13 14 14 15 15
1 0 2 1 3 4 2 1 6 7 8 10 10 11 11 10 9 9 10 10 11 11 11 11 13 14 14 14 14 13 13 13 15 16 16 15 15 16 18 20 22 24 26 27 27 27 26 23 18 16 17 20 23 24 23 21 20 21 23 26 25 24 23 23 24 24 24 23 23 23 21 18 15 13 11 9 8 9 10 11 12 12 13 13 14 14
2 2 2 4 6 6 4 6 10 11 12 13 12 11 11 11 11 9 9 9 11 13 13 13 15 15 14 14 14 13 13 13 14 15 15 14 15 16 16 18 22 26 27 25 25 28 27 20 15 14 17 20 23 23 22 22 22 22 23 24 23 22 22 22 22 22 22 21 22 22 19 17 15 13 11 9 8 8 9 10 11 12 13 14 14 15
2 2 4 6 7 7 8 10 12 13 13 12 10 9 11 13 14 13 11 11 12 14 15 17 17 15 13 13 14 14 13 13 14 15 14 14 14 13 14 18 23 25 24 23 25 26 21 15 14 17 19 21 23 24 22 22 23 23 22 22 22 21 21 21 21 20 21 21 21 20 18 16 15 13 12 10 9 9 9 10 10 12 13 14 15 15
3 3 6 7 8 7 8 12 15 14 12 11 12 14 14 14 15 15 14 14 15 16 17 19 19 18 16 14 14 13 13 13 13 14 15 14 13 12 15 20 23 23 23 25 25 22 17 16 18 20 20 23 25 23 21 22 23 23 21 21 21 19 19 20 20 19 20 20 19 19 18 16 15 14 13 12 11 10 10 10 11 12 13 14 14 15
4 6 7 7 6 6 9 14 16 12 10 11 16 18 17 16 15 15 15 16 17 17 18 19 20 21 19 17 14 12 12 13 14 15 15 13 12 15 19 23 24 23 25 26 26 22 20 20 21 22 24 26 25 22 20 22 23 22 21 21 20 19 19 19 19 18 18 18 18 18 17 16 15 14 13 12 12 11 11 11 11 11 12 12 13 14
4 7 8 7 7 9 12 16 15 12 12 14 17 18 18 16 14 14 16 17 17 18 19 18 19 19 17 15 15 13 11 13 17 18 15 13 15 20 24 26 24 23 24 26 25 24 23 22 23 25 27 26 24 21 21 22 22 22 21 20 20 19 18 18 17 16 16 17 17 17 16 15 15 14 13 12 12 11 11 11 11 11 10 10 12 13
Wind_Direction
86 222 245 229 228 221 217 204 198 198 176 184 203 226 247 259 271 262 256 288 23 281 268 242 256 271 274 278 282 270 213 236 253 255 258 257 257 253 245 246 240 238 243 241 230 223 220 219 218 217 216 216 216 216 215 212 210 210 209 208 208 208 208 207 205 205 205 204 205 206 207 209 210 211 211 212 214 215 217 217 216 218 218 218 216 215
78 231 242 231 228 215 203 187 150 130 149 166 208 249 270 240 264 277 271 307 356 200 269 313 296 279 274 277 282 279 243 248 252 249 257 256 255 256 249 249 244 243 250 245 230 223 219 219 218 217 215 214 214 214 213 212 212 212 210 209 209 209 208 207 207 206 206 206 207 208 209 211 212 212 212 214 215 217 218 218 218 220 220 220 218 217
351 248 251 235 187 132 100 129 136 140 157 156 166 246 280 240 277 298 303 340 25 190 270 349 324 284 281 281 280 277 257 253 251 241 250 255 256 256 247 247 248 251 253 242 232 221 217 217 216 216 215 215 214 213 214 214 214 213 211 210 210 210 208 209 209 208 208 210 211 212 213 213 213 214 216 218 219 219 219 219 220 221 221 221 220 219
262 251 256 209 138 126 94 110 129 128 165 187 169 206 263 243 291 284 296 337 234 205 271 325 319 284 287 293 280 267 248 256 263 248 249 248 250 254 252 253 249 249 252 246 241 226 218 217 215 215 215 215 215 215 215 214 214 213 212 212 211 210 210 210 209 210 211 212 212 212 215 215 213 215 217 217 218 218 219 219 220 221 222 222 221 221
244 239 157 111 124 144 155 154 150 172 249 237 203 213 245 243 217 235 290 330 292 303 285 295 313 283 291 316 293 275 252 273 271 261 268 254 246 257 264 262 249 247 253 252 248 232 216 217 217 217 216 215 215 216 216 215 213 213 213 213 212 211 211 211 210 211 211 210 209 209 210 211 211 213 213 212 215 217 218 219 220 220 221 222 222 222
261 251 134 125 119 140 167 210 191 184 238 292 228 217 231 241 234 244 311 352 343 333 281 56 335 282 317 324 293 302 322 297 279 246 272 270 260 265 270 274 279 282 280 275 271 254 225 221 221 221 219 217 217 218 219 217 216 215 215 214 213 211 211 211 211 210 209 207 206 204 203 202 203 207 209 210 213 215 217 219 220 220 220 221 222 222
266 337 99 143 158 152 183 244 228 173 171 300 249 209 215 220 209 227 274 347 288 276 257 98 130 272 315 303 284 309 326 302 298 268 278 306 324 328 321 320 333 329 317 308 299 289 265 240 227 223 220 218 219 222 221 220 219 218 217 216 214 213 212 212 211 210 207 206 206 206 205 205 204 206 210 213 215 216 218 219 219 220 220 220 221 222
176 85 57 117 136 158 202 250 226 159 142 253 236 142 140 154 168 191 188 206 236 285 286 162 160 260 290 280 283 315 317 301 311 321 341 6 5 7 4 355 354 341 332 324 312 307 293 268 251 239 229 225 224 225 223 221 221 220 219 218 216 214 213 212 211 210 208 207 207 207 208 209 210 211 213 215 216 217 218 218 218 219 219 220 221 222
155 164 193 158 134 194 213 234 198 162 160 243 201 123 119 131 151 156 141 216 290 11 295 238 149 246 273 270 286 317 334 323 330 346 4 10 8 13 10 7 5 355 349 343 334 328 317 299 278 263 252 243 236 232 227 223 223 222 221 219 217 216 215 214 212 210 210 209 209 209 209 211 213 215 216 217 216 215 216 217 218 219 219 219 220 221
250 203 195 158 166 216 218 243 192 174 198 211 138 98 66 69 77 86 114 156 38 12 265 243 165 206 284 279 288 4 23 343 335 355 11 11 11 14 10 8 7 2 2 358 354 350 342 333 316 296 277 262 251 242 235 229 226 223 222 220 218 218 216 215 214 212 212 211 211 211 211 212 214 215 216 217 217 215 215 216 217 218 219 219 219 220
315 255 189 158 191 197 147 86 157 169 157 128 108 69 36 38 51 43 74 101 53 277 263 246 175 185 279 280 326 42 35 336 348 5 9 11 14 15 12 9 6 4 4 3 5 5 360 357 353 344 324 295 276 258 246 238 232 227 224 221 220 220 217 216 215 214 214 213 213 213 214 215 215 215 214 214 215 214 214 215 216 217 219 219 220 220
329 194 225 243 174 128 100 63 50 55 69 97 80 56 22 339 21 20 358 56 102 248 270 299 165 174 237 273 4 34 33 13 20 13 4 8 11 12 13 11 8 6 6 8 11 9 7 7 7 4 355 344 330 300 267 250 241 234 230 226 224 223 220 218 217 216 216 215 215 216 217 218 218 216 215 215 215 214 214 215 216 217 218 219 220 220
288 221 257 330 128 126 114 69 30 21 38 80 77 61 39 324 345 337 312 97 221 245 263 315 148 189 213 170 8 15 28 23 22 19 11 9 9 10 11 9 8 9 10 12 13 11 11 10 9 8 5 2 358 348 328 296 265 248 239 233 230 228 225 222 220 219 218 218 218 219 219 221 221 220 219 218 218 217 217 217 216 216 216 217 219 219
318 314 10 47 300 140 142 140 341 316 72 136 164 124 130 173 300 274 273 279 272 270 280 278 139 245 235 118 26 10 30 23 17 22 19 16 14 12 10 8 9 12 13 13 12 12 13 10 9 10 10 10 7 4 0 349 325 287 260 247 240 237 234 229 227 225 223 223 223 223 223 223 223 222 222 222 222 221 220 219 217 217 217 218 219 220
313 311 317 175 280 125 170 177 161 153 147 173 171 136 153 173 190 245 252 259 278 289 297 309 143 215 208 145 129 67 37 26 24 20 20 24 20 13 12 13 12 12 11 9 10 12 12 9 9 10 13 14 11 10 10 7 0 344 313 283 263 254 247 240 236 232 229 229 228 228 227 227 226 226 225 225 225 224 223 221 220 220 220 220 222 223
272 271 258 286 279 159 181 203 137 120 129 206 137 115 196 194 179 233 228 215 264 310 295 271 219 221 147 139 127 78 30 21 21 14 17 19 16 17 17 15 14 10 9 7 7 8 9 10 10 11 13 13 13 13 12 11 9 3 352 334 307 285 270 259 249 242 237 235 234 233 232 231 231 230 230 229 228 227 226 224 223 223 222 223 224 225
312 280 263 357 317 167 165 197 175 175 213 149 130 209 228 181 149 237 268 268 63 280 271 237 252 298 103 154 17 17 12 11 10 6 11 10 11 19 17 13 10 7 8 7 5 5 7 10 10 10 11 11 11 11 11 11 11 10 6 358 344 325 304 285 270 258 249 243 240 239 237 236 235 234 234 233 232 231 229 228 227 225 225 225 225 225
204 285 293 106 314 258 167 182 277 246 164 134 192 249 255 161 116 113 266 321 16 248 272 315 256 288 307 253 351 8 3 1 0 357 1 1 6 14 11 10 7 4 5 4 5 6 8 11 10 8 8 9 10 9 9 9 9 10 10 7 1 350 336 317 296 278 266 256 249 246 242 241 239 237 237 237 237 236 234 232 230 229 228 227 227 227
141 290 308 88 177 291 21 79 300 298 105 144 217 279 14 232 280 344 327 274 272 267 285 288 268 272 191 268 351 0 351 351 350 351 357 356 0 2 359 2 0 2 6 4 7 7 7 11 9 6 5 6 9 9 7 6 6 7 7 6 5 359 353 344 327 305 284 270 261 255 250 247 244 242 241 241 240 240 238 237 234 232 231 230 229 228
112 188 286 261 182 289 8 61 296 312 347 60 317 331 30 185 229 249 219 221 250 276 282 275 278 280 187 261 355 344 336 342 343 350 356 353 353 352 351 357 356 360 3 2 5 5 5 9 7 5 4 4 7 7 6 6 4 4 3 2 2 360 357 353 345 331 312 292 277 266 259 254 251 248 246 244 242 241 241 240 238 235 234 232 231 229
3 175 259 290 287 304 322 196 193 224 280 317 306 301 297 263 283 296 254 187 231 273 281 279 275 267 179 97 21 327 319 328 336 347 349 344 349 348 347 353 352 355 358 358 0 359 2 6 4 3 2 3 5 6 5 5 3 1 360 358 357 356 355 353 349 343 332 317 300 283 272 263 257 253 250 247 245 243 243 242 240 238 236 234 232 231
253 190 245 294 303 299 288 241 202 205 220 183 174 220 235 208 323 307 283 285 45 247 228 272 281 268 159 124 92 332 316 315 321 335 342 341 344 344 343 347 350 352 353 353 354 354 0 3 1 360 0 2 4 4 3 2 0 359 356 354 353 351 351 350 349 347 341 331 317 301 287 275 266 259 255 251 248 245 244 243 241 239 237 235 233 232
173 165 252 278 278 280 284 286 264 206 146 114 116 66 93 123 112 212 257 289 325 273 183 218 273 262 197 199 131 339 303 302 306 312 333 338 338 341 341 339 344 349 350 349 348 350 357 358 356 356 358 1 2 0 360 359 358 356 352 351 350 348 348 347 346 346 344 337 326 313 299 287 277 268 261 256 252 249 246 244 242 240 237 235 234 232
163 130 288 290 287 288 301 320 339 94 91 72 30 32 58 49 124 189 227 269 283 272 272 263 267 256 195 226 199 311 297 299 309 315 325 328 332 343 342 339 340 344 348 347 344 348 354 353 354 356 358 359 358 356 355 355 354 352 350 348 347 346 346 345 343 343 342 338 330 321 309 298 288 279 269 263 257 253 250 247 244 241 238 235 233 231
292 225 7 326 314 316 330 341 340 349 15 39 45 39 46 27 8 263 267 45 237 277 309 262 271 281 159 205 257 345 319 326 338 340 333 325 330 341 343 342 338 339 346 346 343 347 351 351 352 355 355 355 354 352 351 351 350 348 346 345 345 344 343 342 341 339 337 335 331 325 317 309 299 288 278 270 264 258 254 249 245 242 238 235 232 230
234 243 245 259 276 288 298 301 300 317 327 333 112 54 10 9 3 292 313 13 231 313 12 257 268 306 185 228 322 347 351 347 346 348 343 334 332 336 342 343 336 336 345 343 343 345 346 347 348 350 351 352 351 349 348 348 346 344 342 342 343 342 339 338 337 335 333 330 328 325 320 314 305 295 286 277 270 263 258 252 247 242 238 234 231 228
131 264 225 214 226 244 251 263 283 311 305 297 313 42 6 325 347 102 113 237 225 309 325 234 229 292 288 295 342 352 355 349 342 346 343 335 333 336 340 338 331 331 337 337 340 343 342 343 344 347 349 349 347 346 346 345 342 340 338 339 339 338 337 335 332 331 329 326 324 322 319 314 308 299 291 283 276 268 260 254 248 243 239 235 230 227
65 299 260 232 239 247 260 277 286 289 284 287 300 7 148 311 28 83 150 236 217 304 285 238 198 283 293 315 13 356 351 346 341 342 336 330 334 337 334 331 326 323 328 335 340 341 339 339 341 345 347 346 344 344 343 341 339 337 336 336 336 335 334 332 330 328 326 325 322 318 316 312 306 299 293 286 280 271 262 256 250 244 239 234 229 226
113 257 262 253 268 268 269 275 278 278 275 277 295 305 302 179 134 125 184 235 223 233 270 288 291 282 290 325 23 2 349 342 338 335 328 327 334 332 328 326 323 324 333 338 339 339 336 334 337 344 345 343 342 343 341 338 336 336 335 334 334 333 331 330 328 325 324 323 320 316 313 310 304 297 291 284 278 271 263 257 250 244 238 233 228 225
125 257 278 298 294 285 259 265 280 289 272 274 296 303 313 269 194 143 183 245 238 241 263 285 291 285 289 340 360 352 346 336 332 327 324 329 333 328 324 320 319 328 339 339 336 334 331 330 339 344 342 341 342 341 338 335 334 334 333 332 331 330 329 328 325 322 320 319 317 314 311 309 304 295 286 279 273 268 263 256 249 243 236 231 227 223
82 299 332 36 323 293 260 272 303 228 218 244 282 326 346 342 350 36 10 309 286 272 275 283 288 287 296 21 348 341 339 333 327 322 321 326 327 320 315 316 326 337 338 335 332 328 326 335 344 342 339 339 339 338 335 332 331 330 329 329 329 328 327 325 322 318 316 315 314 313 310 308 305 296 283 274 268 263 259 254 248 241 235 229 224 220
50 316 346 43 345 287 258 355 316 261 216 257 294 356 356 349 344 350 353 326 308 302 304 301 292 295 337 356 340 331 327 321 318 318 318 319 319 315 316 325 335 334 328 327 327 326 330 342 341 336 333 333 334 333 333 331 328 327 327 328 327 326 325 323 320 317 315 314 313 311 308 307 305 297 284 273 265 259 254 249 243 237 231 226 222 219
96 13 332 25 328 275 278 346 320 335 12 299 285 18 346 311 318 332 335 317 307 311 315 300 298 333 340 335 325 317 315 313 314 322 322 318 316 314 318 328 329 326 326 327 326 328 335 337 331 329 329 328 329 330 329 328 325 323 323 325 325 324 323 321 319 316 315 314 313 311 309 308 305 298 286 275 266 259 251 244 237 232 228 224 221 217
113 88 285 190 255 278 299 335 337 347 321 265 170 59 343 331 1 340 315 306 302 299 278 273 325 343 333 324 316 311 310 307 305 313 312 304 302 307 322 330 327 325 323 322 322 326 331 330 327 325 325 325 326 327 325 324 322 319 319 322 323 322 321 320 319 317 315 315 314 313 312 310 307 299 289 277 267 257 248 241 236 231 227 222 218 214
60 24 304 163 169 271 317 4 349 306 257 200 139 52 11 13 9 332 306 282 285 306 313 322 338 334 323 316 312 307 304 298 297 302 294 283 285 316 330 325 319 316 313 312 317 320 322 325 324 322 320 321 323 324 322 321 319 317 317 321 322 321 320 320 319 318 316 316 316 316 315 313 310 302 292 278 265 254 245 240 235 230 225 221 217 214
65 6 303 146 204 274 357 31 296 266 212 176 122 22 22 12 345 339 324 289 265 346 7 346 327 322 319 315 311 304 297 294 293 289 278 271 303 345 322 312 309 308 306 307 310 311 314 317 317 315 315 317 319 319 319 319 317 314 315 319 321 320 320 320 319 318 318 318 318 318 317 315 311 304 292 278 261 249 241 236 232 228 224 220 216 214
98 89 80 83 242 199 123 251 264 311 27 107 13 357 3 332 321 324 314 302 244 126 16 342 326 323 323 316 310 304 298 295 296 288 251 223 341 317 298 297 300 300 300 300 301 302 306 308 309 310 311 313 314 316 318 318 315 313 315 318 319 318 319 319 317 317 318 318 318 318 317 316 312 304 292 275 257 245 239 234 230 226 221 217 213 211
85 115 156 177 259 87 64 300 329 338 314 339 7 319 311 296 282 267 288 306 127 15 341 339 329 322 321 317 313 312 306 297 294 286 154 281 303 301 296 296 296 294 294 295 296 298 302 304 305 307 310 311 311 314 319 317 314 314 316 317 316 315 315 315 315 316 317 317 317 317 317 316 313 305 291 274 257 246 240 233 228 224 219 216 213 211
38 31 115 143 293 33 74 290 286 262 249 218 248 294 303 290 287 324 314 293 1 345 335 331 322 318 319 316 314 312 305 296 296 303 318 307 303 303 299 297 298 296 293 292 292 294 298 301 302 304 307 307 308 315 319 317 313 315 315 314 314 313 311 311 312 315 316 316 317 318 318 318 315 306 292 275 260 249 240 232 227 223 218 216 214 212
14 6 59 89 276 276 138 216 247 252 238 216 242 281 306 299 331 11 327 303 340 339 327 321 317 316 316 311 307 299 274 285 300 307 313 311 305 302 299 299 300 298 295 293 291 292 295 297 298 301 302 302 307 314 317 314 313 314 312 311 310 308 309 311 313 314 315 315 317 319 319 320 317 308 294 277 263 251 240 232 226 221 217 214 212 212
355 356 52 126 227 268 211 221 271 272 232 248 298 309 326 322 335 351 317 310 325 322 317 318 316 313 311 307 303 295 283 286 292 298 305 308 305 303 303 302 300 297 295 294 293 292 293 293 293 293 294 297 307 313 313 312 312 311 309 308 306 304 308 312 313 314 316 316 317 319 321 321 318 310 297 281 264 250 238 230 224 220 215 211 209 208
21 351 356 65 177 267 191 197 298 289 213 14 340 330 356 350 332 316 307 307 311 311 314 316 312 311 312 308 303 300 297 295 295 298 302 304 304 304 304 303 301 299 298 297 294 292 291 291 291 289 288 296 307 311 311 311 309 307 307 306 304 306 310 312 313 315 317 317 318 320 321 321 317 309 297 281 263 247 234 226 221 218 214 210 206 205
164 170 319 288 232 353 56 58 336 276 235 8 359 351 8 352 317 300 304 305 305 309 312 311 309 310 310 305 301 301 301 301 302 303 303 303 302 302 301 301 300 299 298 298 296 294 291 289 288 287 289 299 307 309 310 310 306 304 305 304 306 310 312 313 314 315 316 318 319 321 321 320 317 309 295 279 261 242 228 221 217 214 211 208 205 204
160 136 295 272 188 103 122 249 278 262 301 358 1 340 320 313 300 303 311 308 308 312 311 308 306 304 303 302 301 303 304 305 304 303 302 302 301 300 299 299 299 299 299 300 298 297 295 291 285 285 291 301 308 309 310 308 303 301 302 304 309 313 313 314 316 316 316 318 319 321 322 320 316 308 294 278 259 238 224 217 212 209 208 207 205 203
196 167 186 205 220 200 204 225 297 344 342 344 338 315 306 302 298 305 309 305 306 308 305 303 301 298 300 301 301 302 302 301 300 300 301 301 300 299 297 297 301 304 305 302 299 299 299 294 287 286 293 304 309 309 308 307 301 298 301 307 311 313 314 316 317 315 316 318 320 322 322 320 315 307 294 279 258 237 225 217 210 207 207 207 206 205
293 288 150 113 307 281 218 301 325 328 328 324 316 308 303 298 297 303 304 302 302 301 298 296 293 293 296 297 297 296 295 296 299 300 301 300 300 300 302 306 312 314 309 302 300 303 302 295 288 290 299 307 310 308 307 306 302 298 302 309 313 314 315 317 315 313 314 317 320 322 322 319 314 306 295 282 259 242 233 225 218 213 210 210 210 211
8 36 45 21 338 319 318 322 322 324 321 314 309 304 301 299 297 297 296 297 297 296 294 291 288 288 288 289 289 289 291 296 300 300 303 305 306 309 314 318 318 313 306 303 308 310 305 297 295 302 304 307 310 308 306 306 306 304 307 312 315 316 318 318 316 312 312 316 319 321 320 317 312 305 297 287 267 251 244 235 228 223 219 217 216 215
352 37 19 356 334 309 290 298 311 314 307 304 306 307 310 309 304 301 301 300 297 294 290 287 286 284 282 282 285 287 291 297 300 300 304 308 309 311 315 315 312 310 310 316 321 317 308 300 302 306 305 307 310 309 306 307 309 310 312 315 318 319 319 318 316 313 313 316 318 319 317 314 308 303 297 290 279 266 257 249 242 236 234 234 231 227
293 337 343 325 311 297 294 310 321 317 306 308 316 315 314 312 307 305 306 304 302 299 295 291 288 285 283 284 287 290 294 297 299 302 305 307 307 309 311 312 314 317 322 327 325 318 308 302 305 306 307 310 311 309 307 310 312 313 316 319 322 323 319 316 316 315 313 316 318 318 317 313 308 303 297 292 288 279 269 263 258 254 253 253 249 246
332 345 336 320 319 324 320 322 324 318 309 315 319 317 315 312 308 306 305 305 306 304 302 299 296 292 290 290 291 294 298 300 302 305 304 303 305 310 314 317 320 323 326 326 323 316 308 306 309 310 310 311 311 310 311 313 314 316 321 323 325 324 320 317 318 316 313 315 317 318 317 314 309 304 299 293 290 285 279 274 267 262 264 264 260 256
340 333 327 322 318 314 313 317 319 314 308 311 315 317 315 313 312 309 307 308 308 306 304 302 300 299 298 295 296 298 300 303 306 307 303 304 312 318 319 319 321 324 326 326 323 317 312 312 313 313 311 311 311 312 314 315 316 320 325 326 326 325 322 320 320 316 313 314 315 316 317 313 307 304 300 294 290 287 284 283 277 268 263 264 270 270